| time (UTC) | temp F | wind direction | speed knots | gust knots | rain 1hr in | rain 24hr in | rain mn in | humidity % | barometer mb |
| 20260505070016 | 63 | 162 | 0.0 | 0.0 | 0.00 | 0.00 | 0.00 | 74 | 1006.9 |
| 20260505064514 | 64 | 141 | 0.0 | 0.0 | 0.00 | 0.00 | 0.00 | 72 | 1006.8 |
| 20260505063014 | 64 | 144 | 0.0 | 7.8 | 0.00 | 0.00 | 0.00 | 72 | 1006.2 |
| 20260505061515 | 64 | 153 | 0.0 | 7.8 | 0.00 | 0.00 | 0.00 | 72 | 1005.9 |
| 20260505060020 | 64 | 114 | 0.0 | 4.3 | 0.00 | 0.00 | 0.00 | 72 | 1006.1 |
| 20260505054516 | 64 | 223 | 0.0 | 2.6 | 0.00 | 0.00 | 0.00 | 72 | 1006.6 |
| 20260505053014 | 64 | 99 | 0.0 | 0.9 | 0.00 | 0.00 | 0.00 | 71 | 1006.4 |
| 20260505051517 | 65 | 153 | 0.0 | 3.5 | 0.00 | 0.00 | 0.00 | 70 | 1006.5 |
| 20260505041516 | 66 | 139 | 0.0 | 5.2 | 0.00 | 0.00 | 0.00 | 67 | 1007.1 |
| 20260505040022 | 67 | 107 | 0.9 | 6.1 | 0.00 | 0.00 | 0.00 | 66 | 1007.2 |
| 20260505034520 | 67 | 214 | 0.9 | 6.1 | 0.00 | 0.00 | 0.00 | 66 | 1007.5 |
| 20260505033016 | 67 | 163 | 0.0 | 2.6 | 0.00 | 0.00 | 0.00 | 66 | 1007.5 |
| 20260505031511 | 67 | 88 | 1.7 | 5.2 | 0.00 | 0.00 | 0.00 | 64 | 1007.4 |
| 20260505030026 | 68 | 146 | 0.0 | 3.5 | 0.00 | 0.00 | 0.00 | 64 | 1007.3 |
| 20260505024522 | 68 | 117 | 0.0 | 3.5 | 0.00 | 0.00 | 0.00 | 64 | 1007.0 |
| 20260505023023 | 68 | 217 | 0.0 | 2.6 | 0.00 | 0.00 | 0.00 | 64 | 1006.9 |
| 20260505021512 | 68 | 167 | 0.0 | 0.9 | 0.00 | 0.00 | 0.00 | 63 | 1006.6 |
| 20260505020014 | 69 | 167 | 0.0 | 1.7 | 0.00 | 0.00 | 0.00 | 61 | 1006.2 |
| 20260505014519 | 69 | 143 | 0.0 | 1.7 | 0.00 | 0.00 | 0.00 | 61 | 1006.0 |
| 20260505013025 | 70 | 165 | 0.0 | 3.5 | 0.00 | 0.00 | 0.00 | 59 | 1005.9 |
| 20260505011526 | 71 | 142 | 0.0 | 1.7 | 0.00 | 0.00 | 0.00 | 59 | 1005.6 |
| 20260505010025 | 71 | 125 | 0.0 | 0.0 | 0.00 | 0.00 | 0.00 | 57 | 1005.4 |
| 20260505004534 | 74 | 169 | 0.0 | 2.6 | 0.00 | 0.00 | 0.00 | 50 | 1005.4 |
| 20260505003022 | 75 | 211 | 0.0 | 7.8 | 0.00 | 0.00 | 0.00 | 48 | 1005.4 |
| 20260505001524 | 76 | 221 | 0.9 | 6.1 | 0.00 | 0.00 | 0.00 | 47 | 1005.5 |
| 20260505000017 | 77 | 231 | 0.9 | 7.0 | 0.00 | 0.00 | 0.00 | 46 | 1005.4 |
| 20260504234525 | 78 | 231 | 1.7 | 9.6 | 0.00 | 0.00 | 0.00 | 46 | 1005.4 |
| 20260504233018 | 79 | 169 | 0.9 | 4.3 | 0.00 | 0.00 | 0.00 | 48 | 1005.5 |
| 20260504231516 | 79 | 149 | 0.0 | 2.6 | 0.00 | 0.00 | 0.00 | 48 | 1005.5 |
| 20260504230011 | 79 | 142 | 1.7 | 16.5 | 0.00 | 0.00 | 0.00 | 44 | 1005.6 |
| 20260504224512 | 79 | 152 | 0.0 | 6.1 | 0.00 | 0.00 | 0.00 | 47 | 1005.7 |
| 20260504223018 | 79 | 251 | 1.7 | 12.2 | 0.00 | 0.00 | 0.00 | 43 | 1005.7 |
| 20260504221524 | 80 | 213 | 1.7 | 11.3 | 0.00 | 0.00 | 0.00 | 44 | 1005.5 |
| 20260504220004 | 81 | 191 | 1.7 | 7.8 | 0.00 | 0.00 | 0.00 | 44 | 1005.7 |
| 20260504214516 | 81 | 221 | 1.7 | 16.5 | 0.00 | 0.00 | 0.00 | 45 | 1005.7 |
| 20260504213015 | 81 | 226 | 1.7 | 10.4 | 0.00 | 0.00 | 0.00 | 44 | 1005.8 |
| 20260504211519 | 80 | 97 | 2.6 | 13.9 | 0.00 | 0.00 | 0.00 | 41 | 1005.8 |
| 20260504210029 | 81 | 275 | 5.2 | 12.2 | 0.00 | 0.00 | 0.00 | 40 | 1006.0 |
| 20260504204511 | 81 | 210 | 3.5 | 13.0 | 0.00 | 0.00 | 0.00 | 41 | 1006.3 |
| 20260504203014 | 81 | 257 | 2.6 | 10.4 | 0.00 | 0.00 | 0.00 | 42 | 1006.4 |
| 20260504201518 | 81 | 25 | 3.5 | 13.0 | 0.00 | 0.00 | 0.00 | 41 | 1006.7 |
| 20260504200029 | 80 | 201 | 2.6 | 14.8 | 0.00 | 0.00 | 0.00 | 44 | 1006.8 |
| 20260504194525 | 80 | 221 | 4.3 | 13.0 | 0.00 | 0.00 | 0.00 | 43 | 1006.8 |
| 20260504193020 | 81 | 267 | 3.5 | 13.9 | 0.00 | 0.00 | 0.00 | 45 | 1006.9 |
| 20260504191516 | 80 | 164 | 1.7 | 7.8 | 0.00 | 0.00 | 0.00 | 48 | 1007.3 |
| 20260504190017 | 80 | 183 | 4.3 | 11.3 | 0.00 | 0.00 | 0.00 | 44 | 1007.4 |
| 20260504184521 | 80 | 272 | 2.6 | 12.2 | 0.00 | 0.00 | 0.00 | 46 | 1007.4 |
| 20260504183028 | 80 | 141 | 4.3 | 13.0 | 0.00 | 0.00 | 0.00 | 45 | 1007.4 |
| 20260504181526 | 79 | 118 | 6.1 | 15.6 | 0.00 | 0.00 | 0.00 | 45 | 1007.4 |
| 20260504180018 | 79 | 184 | 3.5 | 11.3 | 0.00 | 0.00 | 0.00 | 48 | 1007.2 |
| 20260504174522 | 79 | 221 | 3.5 | 10.4 | 0.00 | 0.00 | 0.00 | 49 | 1007.5 |
| 20260504173028 | 78 | 236 | 5.2 | 14.8 | 0.00 | 0.00 | 0.00 | 45 | 1007.6 |
| 20260504171539 | 77 | 153 | 3.5 | 11.3 | 0.00 | 0.00 | 0.00 | 48 | 1007.6 |
| 20260504081522 | 57 | 101 | 0.0 | 0.0 | 0.00 | 0.00 | 0.00 | 74 | 1010.3 |